User: anonymous   Login
Location: Unspecified
(0.0000°N, 0.0000°E)
Time: 09:16:12
(UTC+00:00)
Language:

USA 276 - Orbit

View from above orbital plane
View from above orbital plane
View from above satellite
View from above satellite

Ground track
Ground track

The orbit data is extracted from the following two-line orbital elements,

1 42689U 17022A   18260.80247849 0.00005600  00000-0  74710-4 0    07
2 42689  50.0143 184.0512 0009500   4.0035 355.9962 15.57334557    05
Epoch (UTC): 17 September 2018 19:15:34
Eccentricity: 0.0009500
inclination: 50.0143°
perigee height: 389 km
apogee height: 402 km
right ascension of ascending node: 184.0512°
argument of perigee: 4.0035°
revolutions per day: 15.57334557
mean anomaly at epoch: 355.9962°
orbit number at epoch: 0

The dashed part of the orbit path shows where the satellite is in the earth's shadow,  

DLR